Latest Coastal Weather Observations for Bougainville Reef

IDQ60701

Issued at 2:21 pm EST Tuesday 26 May 2020 (issued every 10 minutes, with the page automatically refreshed every 10 minutes)

About coastal observations | Map of coastal stations | Coastal observations for QLD | Marine services | Other Formats
Station Details ID: 200840 Name: BOUGAINVILLE REEF Lat: -15.49 Lon: 147.12 Height: 0.0 m
Data from the previous 72 hours. | See also: Recent months for locations in Queensland
Date/Time
EST
Wind Sea
Height
m
Swell Vis
km
Cloud Weather Temp
°C
Press
hPa
Rain since
9am
mm
Dir  Spd
kts
Gust
kts
Height
m
Period
s
Dir
26/02:00pm SE 13 17 - - - - - - - 23.6 1016.1 -
26/01:30pm SE 13 17 - - - - - - - 23.6 1016.6 -
26/01:00pm SE 14 17 - - - - - - - 23.6 1016.9 -
26/12:30pm SE 13 16 - - - - - - - 23.5 1017.3 -
26/12:00pm SSE 15 18 - - - - - - - 23.1 1017.6 -
26/11:30am SSE 15 19 - - - - - - - 23.2 1018.0 -
26/11:00am SSE 16 20 - - - - - - - 23.0 1018.3 -
26/10:30am SSE 16 19 - - - - - - - 23.0 1018.6 -
26/10:00am SSE 17 21 - - - - - - - 22.8 1018.6 -
26/09:30am SSE 16 19 - - - - - - - 22.9 1018.6 -
26/09:00am SSE 16 21 - - - - - - - 22.8 1018.5 -
26/08:30am SSE 16 20 - - - - - - - 22.7 1018.1 -
26/08:00am SSE 15 17 - - - - - - - 22.7 1017.9 -
26/07:30am SSE 16 19 - - - - - - - 22.7 1017.7 -
26/07:00am SSE 16 20 - - - - - - - 22.5 1017.4 -
26/06:30am SSE 16 19 - - - - - - - 22.6 1017.1 -
26/06:00am SSE 17 20 - - - - - - - 22.8 1016.7 -
26/05:30am SSE 16 21 - - - - - - - 22.6 1016.5 -
26/05:00am SSE 16 20 - - - - - - - 22.6 1016.4 -
26/04:30am SSE 16 18 - - - - - - - 22.6 1016.2 -
26/04:00am SSE 15 18 - - - - - - - 22.8 1016.1 -
26/03:30am S 15 18 - - - - - - - 22.8 1016.0 -
26/03:00am SSE 15 19 - - - - - - - 22.8 1016.0 -
26/02:30am SSE 15 18 - - - - - - - 22.9 1016.1 -
26/02:00am SSE 15 18 - - - - - - - 22.7 1016.2 -
26/01:30am SSE 15 18 - - - - - - - 22.8 1016.4 -
26/01:00am SSE 14 17 - - - - - - - 22.7 1016.7 -
26/12:30am SSE 13 16 - - - - - - - 22.9 1016.9 -
26/12:00am SE 15 17 - - - - - - - 22.8 1017.1 -
 
Date/Time
EST
Wind Sea
Height
m
Swell Vis
km
Cloud Weather Temp
°C
Press
hPa
Rain since
9am
mm
Dir  Spd
kts
Gust
kts
Height
m
Period
s
Dir
25/11:30pm SE 13 17 - - - - - - - 22.9 1017.2 -
25/11:00pm SSE 15 18 - - - - - - - 22.8 1017.2 -
25/10:30pm SSE 14 17 - - - - - - - 22.8 1017.3 -
25/10:00pm SSE 16 19 - - - - - - - 22.8 1017.5 -
25/09:30pm SSE 15 18 - - - - - - - 22.8 1017.4 -
25/09:00pm SSE 15 19 - - - - - - - 22.9 1017.4 -
25/08:30pm SSE 14 18 - - - - - - - 22.8 1017.4 -
25/08:00pm SSE 15 18 - - - - - - - 22.8 1017.1 -
25/07:30pm SSE 15 17 - - - - - - - 22.8 1016.7 -
25/07:00pm SSE 14 18 - - - - - - - 22.9 1016.3 -
25/06:30pm SSE 14 17 - - - - - - - 22.9 1016.1 -
25/06:00pm SSE 14 17 - - - - - - - 22.8 1015.8 -
25/05:30pm SSE 14 17 - - - - - - - 22.8 1015.5 -
25/05:00pm SSE 13 19 - - - - - - - 22.8 1015.2 -
25/04:30pm SSE 15 18 - - - - - - - 23.1 1014.9 -
25/04:00pm SSE 15 19 - - - - - - - 22.8 1014.9 -
25/03:30pm SSE 16 20 - - - - - - - 22.7 1014.8 -
25/03:00pm SSE 16 20 - - - - - - - 22.8 1014.8 -
25/02:30pm SSE 16 19 - - - - - - - 22.6 1015.1 -
25/02:00pm SSE 17 22 - - - - - - - 22.6 1015.3 -
25/01:30pm SSE 16 21 - - - - - - - 22.7 1015.6 -
25/01:00pm SSE 16 20 - - - - - - - 22.6 1016.1 -
25/12:30pm S 15 19 - - - - - - - 22.7 1016.3 -
25/12:00pm SSE 15 19 - - - - - - - 22.8 1016.9 -
25/11:30am S 17 21 - - - - - - - 22.7 1017.3 -
25/11:00am SSE 16 19 - - - - - - - 23.0 1017.8 -
25/10:30am SSE 16 22 - - - - - - - 22.8 1018.0 -
25/10:00am SSE 16 18 - - - - - - - 22.8 1018.2 -
25/09:30am SSE 15 19 - - - - - - - 22.8 1018.0 -
25/09:00am SSE 16 21 - - - - - - - 22.8 1017.9 -
25/08:30am SSE 15 19 - - - - - - - 22.8 1017.4 -
25/08:00am SSE 15 19 - - - - - - - 22.8 1017.0 -
25/07:30am SSE 14 17 - - - - - - - 23.0 1016.7 -
25/07:00am SE 16 20 - - - - - - - 22.8 1016.5 -
25/06:30am SSE 16 19 - - - - - - - 22.9 1016.0 -
25/06:00am SSE 17 22 - - - - - - - 22.7 1015.7 -
25/05:30am SSE 18 23 - - - - - - - 22.9 1015.6 -
25/05:00am SSE 18 23 - - - - - - - 22.6 1015.1 -
25/04:30am SSE 19 23 - - - - - - - 22.5 1014.9 -
25/04:00am S 18 22 - - - - - - - 22.6 1014.8 -
25/03:30am SSE 18 23 - - - - - - - 22.4 1015.0 -
25/03:00am SSE 18 24 - - - - - - - 22.5 1015.0 -
25/02:30am SSE 19 24 - - - - - - - 22.4 1014.9 -
25/02:00am SSE 19 24 - - - - - - - 22.5 1015.2 -
25/01:30am SSE 19 24 - - - - - - - 22.3 1015.2 -
25/01:00am SSE 19 23 - - - - - - - 22.4 1015.5 -
25/12:30am SSE 19 23 - - - - - - - 22.6 1015.6 -
25/12:00am SSE 19 22 - - - - - - - 22.4 1015.6 -
 
Date/Time
EST
Wind Sea
Height
m
Swell Vis
km
Cloud Weather Temp
°C
Press
hPa
Rain since
9am
mm
Dir  Spd
kts
Gust
kts
Height
m
Period
s
Dir
24/11:30pm SSE 18 22 - - - - - - - 22.4 1015.6 -
24/11:00pm SSE 20 23 - - - - - - - 22.3 1016.0 -
24/10:30pm SSE 20 24 - - - - - - - 22.2 1016.2 -
24/10:00pm S 19 23 - - - - - - - 22.3 1016.1 -
24/09:30pm SSE 19 24 - - - - - - - 22.2 1016.0 -
24/09:00pm SSE 18 23 - - - - - - - 22.4 1015.8 -
24/08:30pm S 18 21 - - - - - - - 22.2 1015.7 -
24/08:00pm SSE 20 23 - - - - - - - 22.0 1015.4 -
24/07:30pm S 19 23 - - - - - - - 21.9 1015.2 -
24/07:00pm S 19 22 - - - - - - - 21.9 1014.7 -
24/06:30pm S 19 22 - - - - - - - 22.1 1014.5 -
24/06:00pm SSE 18 21 - - - - - - - 21.9 1014.6 -
24/05:30pm S 18 22 - - - - - - - 21.9 1014.4 -
24/05:00pm S 19 25 - - - - - - - 21.7 1014.0 -
24/04:30pm S 20 25 - - - - - - - 21.7 1013.8 -
24/04:00pm S 20 25 - - - - - - - 21.7 1013.5 -
24/03:30pm S 19 21 - - - - - - - 21.9 1013.4 -
24/03:00pm S 22 26 - - - - - - - 21.6 1013.3 -
24/02:30pm S 20 23 - - - - - - - 21.7 1013.1 -
24/02:00pm S 21 25 - - - - - - - 21.6 1013.3 -
24/01:30pm S 21 25 - - - - - - - 21.7 1013.6 -
24/01:00pm S 22 27 - - - - - - - 21.9 1013.9 -
24/12:30pm S 22 26 - - - - - - - 21.7 1014.3 -
24/12:00pm S 23 28 - - - - - - - 21.8 1014.8 -
24/11:30am S 23 28 - - - - - - - 22.0 1015.4 -
24/11:00am S 25 30 - - - - - - - 21.7 1015.2 -
24/10:30am S 25 29 - - - - - - - 22.0 1015.6 -
24/10:00am S 23 28 - - - - - - - 21.9 1015.9 -
24/09:30am S 23 28 - - - - - - - 21.7 1015.8 -
24/09:00am S 24 29 - - - - - - - 21.8 1015.7 -
24/08:30am S 26 32 - - - - - - - 21.9 1015.3 -
24/08:00am S 27 31 - - - - - - - 22.0 1014.8 -
24/07:30am S 25 28 - - - - - - - 21.8 1014.4 -
24/07:00am S 25 31 - - - - - - - 22.0 1013.8 -
24/06:30am S 25 29 - - - - - - - 21.9 1013.6 -
24/06:00am SSE 20 23 - - - - - - - 21.6 1013.0 -
24/05:56am SSE 21 23 - - - - - - - 21.6 1012.9 -
24/05:55am SSE 20 24 - - - - - - - 21.3 1013.0 -
24/05:30am S 18 23 - - - - - - - 20.6 1012.9 -
24/05:00am SSW 22 24 - - - - - - - 20.6 1012.5 -
24/04:47am SSW 23 28 - - - - - - - 20.1 1012.5 -
24/04:41am S 18 28 - - - - - - - 20.2 1012.4 -
24/04:30am SSW 17 20 - - - - - - - 20.9 1012.4 -
24/04:00am S 19 22 - - - - - - - 21.6 1012.3 -
24/03:30am S 20 23 - - - - - - - 22.5 1012.0 -
24/03:00am S 17 22 - - - - - - - 22.2 1012.3 -
24/02:30am S 15 19 - - - - - - - 22.9 1012.2 -
24/02:00am S 15 18 - - - - - - - 23.2 1012.2 -
24/01:30am SSE 17 21 - - - - - - - 23.3 1012.1 -
24/01:00am S 20 23 - - - - - - - 23.3 1012.5 -
24/12:30am S 20 24 - - - - - - - 23.5 1012.7 -
24/12:00am S 17 20 - - - - - - - 23.3 1012.8 -
 
Date/Time
EST
Wind Sea
Height
m
Swell Vis
km
Cloud Weather Temp
°C
Press
hPa
Rain since
9am
mm
Dir  Spd
kts
Gust
kts
Height
m
Period
s
Dir
23/11:30pm S 16 19 - - - - - - - 23.6 1012.9 -
23/11:00pm S 14 17 - - - - - - - 23.5 1013.2 -
23/10:30pm S 15 18 - - - - - - - 23.3 1013.4 -
23/10:00pm S 15 18 - - - - - - - 23.2 1013.5 -
23/09:30pm S 17 21 - - - - - - - 23.1 1013.7 -
23/09:00pm SSW 22 26 - - - - - - - 23.3 1014.0 -
23/08:30pm SSW 24 28 - - - - - - - 22.8 1014.0 -
23/08:00pm SSW 25 31 - - - - - - - 23.0 1013.7 -
23/07:30pm SSW 24 31 - - - - - - - 23.1 1013.5 -
23/07:00pm SSW 23 27 - - - - - - - 23.1 1013.1 -
23/06:30pm S 25 30 - - - - - - - 23.0 1012.8 -
23/06:00pm S 25 30 - - - - - - - 22.9 1012.4 -
23/05:30pm S 24 29 - - - - - - - 23.1 1011.9 -
23/05:00pm S 23 27 - - - - - - - 22.1 1011.4 -
23/04:30pm SSW 21 25 - - - - - - - 21.9 1011.5 -
23/04:00pm SSW 19 22 - - - - - - - 21.8 1011.3 -
23/03:30pm SW 21 25 - - - - - - - 22.7 1010.9 -
23/03:00pm SW 22 26 - - - - - - - 23.0 1010.7 -
23/02:30pm SW 22 25 - - - - - - - 22.7 1010.7 -

Other formats

Comma delimited format used in spreadsheet applications
http://www.bom.gov.au/fwo/IDQ60701/IDQ60701.95288.axf

JavaScript Object Notation format (JSON) in row-major order
http://www.bom.gov.au/fwo/IDQ60701/IDQ60701.95288.json

Data quality

Most of these data are generated automatically and are frequently updated. Quality checks on data are not normally performed. It is possible for incorrect values to appear. Refer to information at About Latest Weather Observations and please check the disclaimer before using these data.